Weather History for KBGR - April, 2015

Change the Weather History Date:

Sunday, April 12, 2015

  Actual Average Record
Temperature  
Mean Temperature 46 °F 41 °F  
Max Temperature 64 °F 51 °F 84 °F (1945)
Min Temperature 28 °F 31 °F 10 °F (1926)
Degree Days  
Heating Degree Days 19 24  
Month to date heating degree days 373 315  
Since 1 July heating degree days 7515 7038  
Cooling Degree Days 0 0  
Month to date cooling degree days 0 0  
Year to date cooling degree days 0 0  
Moisture  
Dew Point 27 °F    
Average Humidity 55    
Maximum Humidity 85    
Minimum Humidity 25    
Precipitation  
Precipitation 0.00 in 0.13 in 1.66 in (1940)
Month to date precipitation 1.01 1.48  
Year to date precipitation 7.35 10.27  
Snow  
Snow 0.00 in 0.20 in 3.50 in (1965)
Month to date snowfall 6.3 2.5  
Since 1 July snowfall 139.0 64.9  
Snow Depth 7.00 in    
Sea Level Pressure  
Sea Level Pressure 30.10 in    
Wind  
Wind Speed 5 mph (WSW)    
Max Wind Speed 22 mph    
Max Gust Speed 26 mph    
Visibility 10 miles    
Events      
T = Trace of Precipitation, MM = Missing Value Source: NWS Daily Summary

Daily Weather History Graph

Daily Weather History Graph

Search for Another Location

Airport or City:

Trip Planner

Search our weather history database for the weather conditions in past years. The results will help you decide how hot, cold, wet, or windy it might be!

Date:

Astronomy

Apr. 12, 2015 Rise Set
Actual Time 5:56 AM EDT 7:16 PM EDT
Civil Twilight 5:26 AM EDT 7:46 PM EDT
Nautical Twilight 4:49 AM EDT 8:23 PM EDT
Astronomical Twilight 4:11 AM EDT 9:02 PM EDT
Moon 2:00 AM EDT (4/12) 12:09 PM EDT (4/12)
Length of Visible Light 14h 20m
Length of Day
13h 19m
Last Quarter, 44% of the Moon is Illuminated
Apr 12
Last Quarter
Apr 18
New
Apr 25
First Quarter
May 3
Full
May 11
Last Quarter

Hourly Weather History & Observations

Time (EDT) Temp. Windchill Dew Point Humidity Pressure Visibility Wind Dir Wind Speed Gust Speed Precip Events Conditions
12:53 AM 30.9 °F - 24.1 °F 76% 30.01 in 10.0 mi Calm Calm - N/A   Clear
1:53 AM 32.0 °F - 25.0 °F 75% 30.01 in 10.0 mi Calm Calm - N/A   Clear
2:53 AM 30.0 °F - 24.1 °F 79% 30.02 in 10.0 mi Calm Calm - N/A   Clear
3:53 AM 30.9 °F 26.2 °F 24.1 °F 76% 30.02 in 10.0 mi SW 4.6 mph - N/A   Clear
4:53 AM 28.4 °F 23.3 °F 24.8 °F 86% 30.04 in 10.0 mi SSW 4.6 mph - N/A   Clear
5:53 AM 28.9 °F 23.9 °F 23.0 °F 78% 30.06 in 10.0 mi SSW 4.6 mph - N/A   Partly Cloudy
6:53 AM 32.0 °F 27.5 °F 25.0 °F 75% 30.09 in 10.0 mi SSW 4.6 mph - N/A   Partly Cloudy
7:53 AM 37.9 °F 34.4 °F 26.1 °F 62% 30.10 in 10.0 mi SSW 4.6 mph - N/A   Partly Cloudy
8:53 AM 46.9 °F - 26.1 °F 44% 30.11 in 10.0 mi WSW 9.2 mph - N/A   Partly Cloudy
9:53 AM 48.0 °F - 27.0 °F 44% 30.12 in 10.0 mi SW 10.4 mph - N/A   Partly Cloudy
10:53 AM 52.0 °F - 28.0 °F 40% 30.11 in 10.0 mi WSW 11.5 mph - N/A   Partly Cloudy
11:53 AM 55.0 °F - 30.0 °F 38% 30.09 in 10.0 mi SW 10.4 mph - N/A   Partly Cloudy
12:53 PM 57.0 °F - 30.9 °F 37% 30.09 in 10.0 mi West 11.5 mph 20.7 mph N/A   Partly Cloudy
1:53 PM 57.9 °F - 30.0 °F 35% 30.09 in 10.0 mi West 13.8 mph 23.0 mph N/A   Partly Cloudy
2:53 PM 60.1 °F - 30.0 °F 32% 30.08 in 10.0 mi West 11.5 mph 19.6 mph N/A   Partly Cloudy
3:53 PM 63.0 °F - 28.0 °F 27% 30.07 in 10.0 mi West 10.4 mph 21.9 mph N/A   Partly Cloudy
4:53 PM 62.6 °F - 26.6 °F 26% 30.08 in 10.0 mi WNW 9.2 mph - N/A   Partly Cloudy
5:53 PM 62.1 °F - 28.0 °F 28% 30.10 in 10.0 mi Variable 6.9 mph - N/A   Partly Cloudy
6:53 PM 59.0 °F - 27.0 °F 29% 30.13 in 10.0 mi WNW 6.9 mph - N/A   Partly Cloudy
7:53 PM 46.9 °F - 28.9 °F 50% 30.16 in 10.0 mi Calm Calm - N/A   Partly Cloudy
8:53 PM 46.9 °F - 28.0 °F 48% 30.19 in 10.0 mi SW 5.8 mph - N/A   Partly Cloudy
9:53 PM 45.0 °F 42.6 °F 28.0 °F 52% 30.22 in 10.0 mi West 4.6 mph - N/A   Clear
10:53 PM 41.0 °F 39.0 °F 28.9 °F 62% 30.23 in 10.0 mi South 3.5 mph - N/A   Clear
11:53 PM 37.0 °F - 28.9 °F 73% 30.23 in 10.0 mi Calm Calm - N/A   Clear